Regional Weather Roundup
Issued by NWS Green Bay, WI

Home | Current Version | Previous Version | Graphics & Text | Print | Product List | Glossary Off
Versions: 1 2 3 4 5 6 7 8 9 10 11 12 13 14 15 16 17 18 19 20 21 22 23 24 25 26 27 28 29 30 31 32 33 34 35 36 37 38 39 40 41 42 43 44 45 46 47 48 49 50

000
ASUS43 KGRB 261410
RWRGRB

NORTH-CENTRAL AND NORTHEAST WISCONSIN REGIONAL WEATHER ROUNDUP
NATIONAL WEATHER SERVICE GREEN BAY WI
800 AM CST THU FEB 26 2015

WIZ005-009-010>012-018-019-261500-
NORTH CENTRAL WISCONSIN

CITY           SKY/WX    TMP DP  RH WIND       PRES   REMARKS
IRONWOOD       MOSUNNY  -20 -20 100 CALM      30.28R
MANITOWISH WTR   N/A    -24 -31  71 CALM      30.24R
ARBOR VITAE    SUNNY    -17 -26  66 CALM      30.24R
EAGLE RIVER    MOSUNNY  -22 -30  67 CALM      30.23R
LAND O LAKES   MOSUNNY  -22 -28  73 CALM      30.23R
RHINELANDER    SUNNY     -8 -13  78 N3        30.24R
PHILLIPS       SUNNY    -21 -28  72 CALM      30.27R
ANTIGO         SUNNY    -16 -20  81 CALM      30.24R
TOMAHAWK       SUNNY    -13 -17  80 CALM      30.27R
MERRILL        SUNNY    -12 -18  75 CALM      30.27R
$$

WIZ013-073-261500-
NORTHEAST WISCONSIN

CITY           SKY/WX    TMP DP  RH WIND       PRES   REMARKS
IRON MOUNTAIN  SUNNY    -15 -22  70 CALM      30.25R
MARINETTE      SUNNY     -6  -9  84 N8        30.30R WCI -21
OCONTO         SUNNY     -3  -9  75 N5        30.32R WCI -13
$$

WIZ017-030-035>037-045-261500-
CENTRAL WISCONSIN

CITY           SKY/WX    TMP DP  RH WIND       PRES   REMARKS
MEDFORD        SUNNY    -11 -16  80 N5        30.26R WCI -23
WAUSAU         SUNNY     -8 -13  78 NW6       30.27R WCI -21
MOSINEE        SUNNY     -8  -9  92 NW9       30.28R WCI -25
MARSHFIELD     SUNNY     -4 -10  75 N6        30.28R WCI -16
WISC RAPIDS    SUNNY     -3 -11  68 N7        30.31R WCI -16
STEVENS POINT  SUNNY     -7 -12  79 N5        30.29R WCI -18
WAUPACA        SUNNY      0  -9  64 N5        30.31R WCI -10
SHAWANO        SUNNY      0  -8  71 CALM      30.31R
CLINTONVILLE   SUNNY      0  -8  71 N7        30.31R WCI -13
$$

WIZ038-039-048-051-261500-
FOX VALLEY

CITY           SKY/WX    TMP DP  RH WIND       PRES   REMARKS
NWS GREEN BAY  SUNNY      0  -7  72 N3        30.31R
APPLETON       SUNNY     -2  -9  71 N10       30.28R WCI -19
OSHKOSH        SUNNY      1  -8  66 N10       30.28R WCI -15
FOND DU LAC    SUNNY      2  -7  66 N15       30.28R WCI -17
$$

WIZ022-050-052-261500-
EAST CENTRAL WISCONSIN

CITY           SKY/WX    TMP DP  RH WIND       PRES   REMARKS
STURGEON BAY   SUNNY     -2  -8  78 N6        30.30R WCI -14
MANITOWOC      SUNNY      2  -5  72 N13       30.28R WCI -15
SHEBOYGAN      SUNNY      2  -8  63 N9        30.26R WCI -13
$$

LMZ563-521-522-541>543-261500-
LAKESHORE

STATION/POSITION TIME  TEMP    WIND        PRES    VSBY  WAVE
                       AIR SEA DIR/SP/G                  HT/PER
                 (UTC) (F)     (DEG/KT/KT) (MB)    (MI)  (FT/S)
SHEBOYGAN LKSHOR 1400    6     340/ 17/ 21 1026.6R
KEWAUNEE LKSHORE 1400    0     320/  7/ 12 1024.7R
TWO RIVERS CG    1300    0                 1024.6      6   0
NORTHPORT PIER   1400    1     330/ 11/ 14 1025.7R
SISTER BAY LKSHO 1300    0      10/  7/  8   N/A
STURGEON BAY CG  1300   -5     310/  7     1025.6   1 1/4  0
CHAMBERS ISLAND  1400   -1     310/ 11/ 12 1025.7R
MENOMINEE LKSHOR 1400   -3     300/  9     1026.8R
$$


USA.gov is the U.S. government's official web portal to all federal, state and local government web resources and services.